DW2150 Weather Reports


Display with metric or nautical units.
time (UTC)temp
F
wind
direction
speed
MPH
gust
MPH
rain 1hr
in
rain 24hr
in
rain mn
in
humidity
%
barometer
mb
20260504223434 76 19 1.0 3.0 0.00 0.00 0.00 80 1012.5
20260504222901 76 90 1.0 2.0 0.00 0.00 0.00 80 1012.5
20260504222358 76 115 1.0 2.0 0.00 0.00 0.00 80 1012.5
20260504221854 76 115 1.0 2.0 0.00 0.00 0.00 79 1012.5
20260504221258 76 115 1.0 3.0 0.00 0.00 0.00 79 1012.5
20260504220755 76 115 1.0 3.0 0.00 0.00 0.00 79 1012.5
20260504220252 77 116 1.0 3.0 0.00 0.00 0.00 78 1012.5
20260504215749 77 150 1.0 3.0 0.00 0.00 0.00 78 1012.9
20260504215246 77 331 0.0 4.0 0.00 0.00 0.00 78 1012.9
20260504214743 77 253 1.0 4.0 0.00 0.00 0.00 78 1012.9
20260504214240 78 253 1.0 4.0 0.00 0.00 0.00 78 1012.9
20260504213737 78 181 2.0 4.0 0.00 0.00 0.00 78 1012.9
20260504213233 78 165 1.0 3.0 0.00 0.00 0.00 76 1012.9
20260504212659 78 248 1.0 3.0 0.00 0.00 0.00 77 1012.9
20260504212137 78 145 1.0 3.0 0.00 0.00 0.00 77 1012.9
20260504211634 78 198 2.0 4.0 0.00 0.00 0.00 77 1012.9
20260504211028 78 169 1.0 4.0 0.00 0.00 0.00 78 1013.2
20260504210525 78 169 1.0 4.0 0.00 0.00 0.00 77 1013.2
20260504205951 79 200 1.0 4.0 0.00 0.00 0.00 75 1013.2
20260504205448 79 161 1.0 2.0 0.00 0.00 0.00 77 1013.2
20260504204945 78 160 1.0 3.0 0.00 0.00 0.00 77 1013.2
20260504204411 79 159 1.0 3.0 0.00 0.00 0.00 76 1013.5
20260504203837 79 147 1.0 3.0 0.00 0.00 0.00 75 1013.5
20260504203333 79 126 1.0 3.0 0.00 0.00 0.00 73 1013.5
20260504202759 79 179 1.0 2.0 0.00 0.00 0.00 76 1013.5
20260504202225 79 200 1.0 4.0 0.00 0.00 0.00 75 1013.5
20260504201721 80 234 1.0 4.0 0.00 0.00 0.00 74 1013.5
20260504201159 80 148 1.0 4.0 0.00 0.00 0.00 73 1013.9
20260504200656 80 150 2.0 4.0 0.00 0.00 0.00 74 1013.9
20260504200153 80 73 1.0 3.0 0.00 0.00 0.00 72 1013.9
20260504195649 80 73 1.0 3.0 0.00 0.00 0.00 74 1013.9
20260504195114 80 131 1.0 3.0 0.00 0.00 0.00 72 1013.9
20260504194611 80 130 1.0 3.0 0.00 0.00 0.00 74 1013.9
20260504194108 81 124 2.0 3.0 0.00 0.00 0.00 73 1013.9
20260504193605 81 34 0.0 2.0 0.00 0.00 0.00 71 1014.2
20260504193103 81 19 0.0 5.0 0.00 0.00 0.00 72 1014.2
20260504192559 80 355 1.0 5.0 0.00 0.00 0.00 75 1014.2
20260504192025 80 300 1.0 5.0 0.00 0.00 0.00 71 1014.2
20260504191451 81 220 2.0 3.0 0.00 0.00 0.00 72 1014.2
20260504190948 81 187 1.0 3.0 0.00 0.00 0.00 73 1014.2
20260504190412 80 337 1.0 3.0 0.00 0.00 0.00 71 1014.6
20260504185909 80 133 1.0 3.0 0.00 0.00 0.00 72 1014.6
20260504185407 81 96 1.0 4.0 0.00 0.00 0.00 72 1014.6
20260504184903 81 58 1.0 4.0 0.00 0.00 0.00 72 1014.6
20260504184359 82 154 1.0 4.0 0.00 0.00 0.00 71 1014.6
20260504183825 82 127 2.0 4.0 0.00 0.00 0.00 71 1014.2
20260504183322 82 350 1.0 3.0 0.00 0.00 0.00 70 1014.6
20260504182747 82 256 1.0 3.0 0.00 0.00 0.00 72 1014.9
20260504182244 81 282 1.0 4.0 0.00 0.00 0.00 72 1014.9
20260504181740 81 69 1.0 4.0 0.00 0.00 0.00 70 1014.9
20260504181205 81 99 1.0 4.0 0.00 0.00 0.00 72 1014.9
20260504180701 80 155 1.0 4.0 0.00 0.00 0.00 72 1014.9
20260504180150 80 117 0.0 3.0 0.00 0.00 0.00 72 1014.9
20260504175646 80 64 0.0 3.0 0.00 0.00 0.00 72 1014.9
20260504175140 80 102 1.0 3.0 0.00 0.00 0.00 73 1015.2
20260504174637 80 154 1.0 3.0 0.00 0.00 0.00 73 1015.2
20260504174132 80 155 1.0 3.0 0.00 0.00 0.00 72 1015.2
20260504173629 80 172 1.0 3.0 0.00 0.00 0.00 72 1015.6
20260504173125 80 240 1.0 3.0 0.00 0.00 0.00 73 1015.6
20260504172621 80 98 1.0 3.0 0.00 0.00 0.00 71 1015.6
20260504172100 80 89 1.0 3.0 0.00 0.00 0.00 72 1015.6
20260504171556 79 331 1.0 3.0 0.00 0.00 0.00 74 1015.6
20260504171034 80 78 2.0 3.0 0.00 0.00 0.00 71 1015.6
20260504170531 79 299 1.0 4.0 0.00 0.00 0.00 74 1015.6
20260504160253 78 48 1.0 2.0 0.00 0.00 0.00 74 1016.3
20260504150751 73 188 1.0 2.0 0.00 0.00 0.00 82 1016.3
20260504150217 74 198 1.0 2.0 0.00 0.00 0.00 80 1016.6
20260504141147 71 291 1.0 3.0 0.00 0.00 0.00 84 1016.3
20260504140625 71 292 1.0 2.0 0.00 0.00 0.00 84 1016.3
20260504140121 70 292 0.0 3.0 0.00 0.00 0.00 85 1016.3
20260504130524 63 326 0.0 0.0 0.00 0.00 0.00 90 1016.6
20260504110526 59 326 0.0 0.0 0.00 0.00 0.00 89 1015.9
20260504100348 59 326 0.0 0.0 0.00 0.00 0.00 88 1016.3
20260504081940 60 326 0.0 0.0 0.00 0.00 0.00 86 1016.9
20260504081405 60 326 0.0 0.0 0.00 0.00 0.00 86 1016.9
20260504080902 60 326 0.0 0.0 0.00 0.00 0.00 85 1016.9
20260504080359 60 326 0.0 0.0 0.00 0.00 0.00 85 1017.3
20260504070113 61 326 0.0 0.0 0.00 0.00 0.00 85 1017.9
20260504050658 61 326 0.0 0.0 0.00 0.00 0.00 82 1018.6
20260504050155 62 326 0.0 0.0 0.00 0.00 0.00 82 1019.0
20260504045652 62 326 0.0 0.0 0.00 0.00 0.00 82 1019.0
20260504045149 62 298 0.0 0.0 0.00 0.00 0.00 81 1019.0
20260504044646 62 300 0.0 0.0 0.00 0.00 0.00 81 1019.0
20260504044009 62 300 0.0 0.0 0.00 0.00 0.00 80 1019.0
20260504043505 62 300 0.0 0.0 0.00 0.00 0.00 80 1019.0
20260504043003 62 300 0.0 0.0 0.00 0.00 0.00 80 1019.0
20260504042410 62 300 0.0 0.0 0.00 0.00 0.00 79 1019.0
20260504041907 62 300 0.0 0.0 0.00 0.00 0.00 79 1019.0
20260504041404 63 300 0.0 0.0 0.00 0.00 0.00 79 1019.0
20260504040901 63 300 0.0 0.0 0.00 0.00 0.00 79 1019.0
20260504040256 63 300 0.0 0.0 0.00 0.00 0.00 79 1019.0
20260504035753 63 300 0.0 0.0 0.00 0.00 0.00 78 1019.0
20260504035250 63 300 0.0 0.0 0.00 0.00 0.00 78 1019.0
20260504034747 63 300 0.0 0.0 0.00 0.00 0.00 78 1019.0
20260504034245 63 300 0.0 0.0 0.00 0.00 0.00 78 1019.0
20260504033741 64 300 0.0 0.0 0.00 0.00 0.00 78 1019.0
20260504033239 64 300 0.0 0.0 0.00 0.00 0.00 79 1019.0
20260504032736 64 300 0.0 0.0 0.00 0.00 0.00 79 1019.0
20260504032215 64 300 0.0 0.0 0.00 0.00 0.00 79 1019.0
20260504031712 64 300 0.0 0.0 0.00 0.00 0.00 78 1019.0
20260504031209 64 300 0.0 0.0 0.00 0.00 0.00 78 1019.0
20260504030706 64 300 0.0 0.0 0.00 0.00 0.00 78 1018.6
20260504030203 64 300 0.0 0.0 0.00 0.00 0.00 78 1019.0
20260504025700 64 300 0.0 0.0 0.00 0.00 0.00 77 1019.0
20260504025157 65 300 0.0 0.0 0.00 0.00 0.00 77 1019.0
20260504024654 65 300 0.0 0.0 0.00 0.00 0.00 77 1019.0
20260504024151 65 300 0.0 0.0 0.00 0.00 0.00 77 1019.0
20260504023648 65 300 0.0 0.0 0.00 0.00 0.00 76 1019.0
20260504023145 65 300 0.0 0.0 0.00 0.00 0.00 76 1019.0
20260504022641 66 300 0.0 0.0 0.00 0.00 0.00 76 1019.0
20260504022137 66 300 0.0 0.0 0.00 0.00 0.00 75 1019.0
20260504021634 66 300 0.0 0.0 0.00 0.00 0.00 75 1019.0
20260504021131 66 300 0.0 0.0 0.00 0.00 0.00 74 1019.0
20260504020629 66 300 0.0 0.0 0.00 0.00 0.00 73 1019.0
20260504020125 67 300 0.0 0.0 0.00 0.00 0.00 73 1019.0
20260504015623 67 300 0.0 0.0 0.00 0.00 0.00 73 1019.0
20260504015120 67 300 0.0 0.0 0.00 0.00 0.00 74 1019.0
20260504014616 67 300 0.0 0.0 0.00 0.00 0.00 73 1018.6
20260504014113 68 300 0.0 1.0 0.00 0.00 0.00 73 1019.0
20260504013610 68 300 0.0 1.0 0.00 0.00 0.00 72 1019.0
20260504013048 68 300 0.0 1.0 0.00 0.00 0.00 74 1019.0
20260504012545 68 300 1.0 1.0 0.00 0.00 0.00 72 1018.6
20260504012042 69 300 1.0 1.0 0.00 0.00 0.00 72 1018.6
20260504011539 69 300 0.0 0.0 0.00 0.00 0.00 72 1018.6
20260504011036 69 300 0.0 0.0 0.00 0.00 0.00 71 1018.6
20260504010458 69 300 0.0 1.0 0.00 0.00 0.00 71 1018.6
20260504005935 70 300 0.0 1.0 0.00 0.00 0.00 70 1018.6
20260504005432 70 300 0.0 1.0 0.00 0.00 0.00 70 1018.6
20260504004929 70 300 0.0 1.0 0.00 0.00 0.00 68 1018.6
20260504004426 70 296 0.0 0.0 0.00 0.00 0.00 68 1018.6
20260504003904 71 296 0.0 1.0 0.00 0.00 0.00 68 1018.6
20260504003401 71 296 0.0 1.0 0.00 0.00 0.00 67 1018.6
20260504002859 71 296 0.0 1.0 0.00 0.00 0.00 67 1018.6
20260504002354 72 327 1.0 1.0 0.00 0.00 0.00 66 1018.6
20260504001851 72 327 0.0 1.0 0.00 0.00 0.00 65 1018.6
20260504001317 73 327 1.0 1.0 0.00 0.00 0.00 62 1018.6
20260504000743 73 327 1.0 1.0 0.00 0.00 0.00 62 1018.6
20260504000138 73 327 1.0 1.0 0.00 0.00 0.00 62 1018.6
20260503235540 73 327 1.0 1.0 0.00 0.00 0.00 62 1018.6
20260503235018 73 326 0.0 2.0 0.00 0.00 0.00 61 1018.6
20260503234500 74 326 1.0 2.0 0.00 0.00 0.00 60 1019.0
20260503233957 74 326 0.0 2.0 0.00 0.00 0.00 61 1019.0
20260503233435 74 309 1.0 2.0 0.00 0.00 0.00 61 1019.0
20260503232932 74 20 1.0 2.0 0.00 0.00 0.00 59 1019.0
20260503232429 75 76 1.0 3.0 0.00 0.00 0.00 61 1019.0
20260503231926 75 76 1.0 3.0 0.00 0.00 0.00 60 1019.0
20260503231423 75 76 1.0 3.0 0.00 0.00 0.00 59 1019.0
20260503230920 75 77 1.0 3.0 0.00 0.00 0.00 60 1019.0
20260503230345 76 30 1.0 2.0 0.00 0.00 0.00 58 1019.0
20260503225823 76 55 1.0 2.0 0.00 0.00 0.00 61 1019.3
20260503225320 76 57 1.0 2.0 0.00 0.00 0.00 55 1019.0
20260503224817 76 36 1.0 3.0 0.00 0.00 0.00 61 1019.0
20260503224313 76 360 0.0 3.0 0.00 0.00 0.00 58 1019.3